Regional Weather Roundup
Issued by NWS

Home | Current Version | Previous Version | Text Only | Print | Product List | Glossary Off
Versions: 1 2 3 4 5 6 7 8 9 10 11 12 13 14 15 16 17 18 19 20 21 22 23 24 25 26 27 28 29 30 31 32 33 34 35 36 37 38 39 40 41 42 43 44 45 46 47 48 49 50

000
ASUS43 KMKX 290921
RWRWI

WISCONSIN REGIONAL WEATHER ROUNDUP
NATIONAL WEATHER SERVICE MILWAUKEE/SULLIVAN WI
400 AM CDT MON AUG 29 2016

NOTE: "FAIR" INDICATES FEW OR NO CLOUDS BELOW 12,000 FEET WITH NO
SIGNIFICANT WEATHER AND/OR OBSTRUCTIONS TO VISIBILITY.

WIZ001-002-006>008-014>016-023>028-291000-
NORTHWEST WISCONSIN

CITY           SKY/WX    TMP DP  RH WIND       PRES   REMARKS
SUPERIOR ARPT  CLOUDY    65  65 100 N3        30.14R
ASHLAND        CLOUDY    62  61  96 CALM      30.16R
HAYWARD        CLOUDY    68  65  90 S6        30.17S
SIREN          CLOUDY    69  67  94 S10       30.14F
CUMBERLAND     CLOUDY    64  63  94 SE5       30.19R
RICE LAKE      CLOUDY    66  64  93 CALM      30.20R
CHETEK         NOT AVBL
LADYSMITH      CLOUDY    65  64  95 SE3       30.22R
EAU CLAIRE     MOCLDY    66  65  96 E3        30.19R
MENOMONIE      CLEAR     64  64  99 SE3       30.18S FOG
NEW RICHMOND   CLEAR     67  67  99 CALM      30.17R
OSCEOLA        CLEAR     68  68 100 SE5       30.18R
$$

WIZ003>005-009-010-017-018-291000-
NORTH CENTRAL WISCONSIN

CITY           SKY/WX    TMP DP  RH WIND       PRES   REMARKS
MANITOWISH WTR NOT AVBL
ARBOR VITAE    CLOUDY    64  63  94 SE3       30.23S
WOODRUFF       CLOUDY    64  63  94 SE3       30.23S
RHINELANDER    CLOUDY    62  62 100 S3        30.25S
EAGLE RIVER    CLOUDY    61  61 100 CALM      30.25R FOG
LAND O LAKES   CLOUDY    54  54 100 CALM      30.25S
PHILLIPS       CLOUDY    65  64  98 S5        30.21S
TOMAHAWK       CLOUDY    61  60  97 CALM      30.24S FOG
MEDFORD        CLOUDY    64  64 100 SE5       30.23S
MERRILL        PTCLDY    62  62 100 CALM      30.24F
$$

WIZ029-030-035-036-043>047-291000-
CENTRAL WISCONSIN

CITY           SKY/WX    TMP DP  RH WIND       PRES   REMARKS
WAUSAU         PTCLDY    63  62  97 SE5       30.22F
MOSINEE        CLOUDY    63  63 100 SE5       30.25F
MARSHFIELD     MOCLDY    67  64  90 E5        30.22S
STEVENS POINT  CLOUDY    63  63  99 CALM      30.25R
WAUPACA        CLOUDY    67  67  99 CALM      30.24S FOG
WAUTOMA        CLOUDY    66  65  96 CALM      30.24S
WISC RAPIDS    MOCLDY    68  67  96 SE7       30.23F
CAMP DOUGLAS   CLEAR     61  61 100 CALM      30.22S
$$

WIZ011>013-019>022-031-037>040-048>050-291000-
NORTHEAST WISCONSIN

CITY           SKY/WX    TMP DP  RH WIND       PRES   REMARKS
ANTIGO         FOG       63  63 100 CALM      30.26S VSB 3/4
SHAWANO        MOCLDY    66  63  89 CALM      30.25S
OCONTO         NOT AVBL
STURGEON BAY   CLOUDY    60  60 100 SE3       30.26R
GREEN BAY      CLOUDY    61  61 100 CALM      30.24S FOG
MANITOWOC      FOG       59  57  94 MISG      30.25S VSB 3/4
APPLETON       PTCLDY    64  64 100 CALM      30.22F
CLINTONVILLE   MOCLDY    63  63 100 CALM      30.24S
OSHKOSH        CLOUDY    66  63  90 SW3       30.24R
$$

WIZ032>034-041-042-053>061-291000-
SOUTHWEST WISCONSIN

CITY           SKY/WX    TMP DP  RH WIND       PRES   REMARKS
LA CROSSE      CLEAR     68  67  96 E3        30.18R
SPARTA         CLEAR     59  59 100 CALM      30.21S
VIROQUA        CLEAR     66  66 100 S5        30.22S
BOSCOBEL       FOG       68  67  96 CALM      30.21R VSB<1/4
PRAIRIE DU CHI CLEAR     67  66  94 CALM      30.21R
PLATTEVILLE    CLEAR     67  67 100 SE3       30.22S
$$

WIZ056-057-062-063-064-067-068-291000-
SOUTH CENTRAL WISCONSIN

CITY           SKY/WX    TMP DP  RH WIND       PRES   REMARKS
REEDSBURG      NOT AVBL
BARABOO/DELLS  CLEAR     65  63  95 CALM      30.22S FOG
LONE ROCK      FOG       64  63  96 CALM      30.22S VSB 1
MINERAL POINT  CLEAR     68  68 100 S5        30.23R
MADISON        CLEAR     68  66  93 E5        30.22S
MIDDLETON      CLOUDY    70  70 100 SE5       30.23R
WATERTOWN      PTCLDY    64  64 100 CALM      30.23S
MONROE         FOG       68  66  94 E3        30.23R VSB<1/4
JANESVILLE     CLEAR     66  64  94 CALM      30.22R FOG
$$

WIZ051-052-058>065-066-070>072-291000-
SOUTHEAST WISCONSIN

CITY           SKY/WX    TMP DP  RH WIND       PRES   REMARKS
MILWAUKEE      FOG       67  66  97 CALM      30.23S VSB 1/2
WAUKESHA       FOG       63  63 100 CALM      30.25R VSB 1/4
MILWAUKEE/TIMM PTCLDY    63  59  88 CALM      30.25R
RACINE         PTCLDY    66  64  93 CALM      30.25R FOG
BURLINGTON     FOG       60  60  99 CALM      30.23S VSB 1/4
KENOSHA        FOG       64  63  96 NE3       30.24R VSB 3/4
FOND DU LAC    MOCLDY    66  63  90 S6        30.24R
SHEBOYGAN      FOG       59  57  93 NE5       30.25R VSB 1/4
WEST BEND      FOG       61  61 100 CALM      30.25R VSB 3/4
JUNEAU         CLOUDY    66  64  93 CALM      30.26R
$$

LSZ147-162-291000-
LAKE SUPERIOR

STATION/POSITION TIME  TEMP    WIND        PRES    WAVE
                       AIR SEA DIR/SP/G            HT/PER
                 (UTC) (F)     (DEG/KT/KT) (MB)    (FT/S)
W MID LAKE BUOY  0850   68 67  160/ 12/ 14 1020.4R   1/ 3
DEVILS ISLAND    0900   68     210/  7/  8 1020.5S
PORT WING        0800   65     180/  3/  8 1020.0F
SAXON HARBOR     0800   68     200/  7/ 12 1020.3
$$

LMZ867-665-643>646-291000-
LAKE MICHIGAN

STATION/POSITION TIME  TEMP    WIND        PRES    WAVE
                       AIR SEA DIR/SP/G            HT/PER
                 (UTC) (F)     (DEG/KT/KT) (MB)    (FT/S)
CHAMBERS ISLAND  0800   61     230/  1/  1 1024.0
N MID LAKE BUOY  0850   71 71  150/  8/ 10 1024.0R   0
NORTHPORT PIER   0800   65     210/  2/  4 1024.0R
KEWAUNEE LAKESHO 0800   60     290/  2/  3 1023.3R
SHEBOYGAN LAKESH 0900   63     330/  2/  2 1023.8R
PORT WASHINGTON  0800   64     290/  2/  3 1024.0
ATWATER BUOY     0900   65     360/  6/  6   N/A
MILWAUKEE LAKESH 0810   67      30/  7/  7   N/A
S MID LAKE BUOY  0850   73 75   90/  4/  6 1022.7S   1
KENOSHA   LAKESH 0900   68     360/  6/  6 1023.4R
$$

TC  - TEMPERATURE IN CELSIUS
VSB - VISIBILITY IN STATUTE MILES
WCI - WIND CHILL INDEX
HX  - HEAT INDEX





USA.gov is the U.S. government's official web portal to all federal, state and local government web resources and services.